Back to catalog

BusanSat

AliveScienceSSO
NORAD 68989·PAYLOAD·🇮🇹 Italy

Launched May 3, 2026 from Vandenberg Space Force Base

Loading…

Next Passes (next 24 hours)

TLE

FreshSource: Space-Track

Epoch: Sep 13, 2026, 16:29 UTC

1 68989U 26100K   26256.68708014  .00001288  00000-0  13533-3 0  9991
2 68989  97.7265 152.3160 0005486 187.8040 172.3094 14.91136968 19887

Track BusanSat in real time with AllMySat

Download on the App Store